Location: Waco, TX
(31.5480°N, 97.1670°W)
Time: 02:02:31
(UTC-06:00)

ISS - Pass Details

Date: 26 January 2021
Orbit: 417 x 422 km, 51.6° (Epoch: 09 March)

Event Time Altitude Azimuth Distance (km) Brightness Sun altitude
Rises 16:17:05 0° 254° (WSW) 2,355 1.4 18.1°
Reaches altitude 10° 16:19:30 10° 271° (W) 1,495 0.1 17.6°
Maximum altitude 16:22:09 21° 323° (NW) 992 -1.7 17.2°
Drops below altitude 10° 16:24:50 10° 15° (NNE) 1,503 -1.3 16.7°
Sets 16:27:16 0° 32° (NNE) 2,370 -0.5 16.3°
